Tracking 30685 objects as of 17-Jun-2025
HD Live streaming from Space Station
objects crossing your sky now

NOAA 16 DEB

Track NOAA 16 DEB now!
10-day predictions


NORAD ID: 41276
Int'l Code: 2000-055GC
Perigee: 815.4 km
Apogee: 838.1 km
Inclination: 98.7 °
Period: 101.3 minutes
Semi major axis: 7197 km
RCS: Unknown
Launch date: September 21, 2000
Source: United States (US)
Launch site: AIR FORCE WESTERN TEST RANGE (AFWTR)

Note: This is SATELLITE DEBRIS
Your satellite tracking list
Your tracking list is empty




NASA's NSSDC Master Catalog

Two Line Element Set (TLE):
1 41276U 00055GC  25167.99469978  .00002395  00000-0  11083-2 0  9996
2 41276  98.6688 218.8072 0015787 128.1324 232.1279 14.21703272489088
Source of the keplerian elements: AFSPC